Time,TemperatureF,DewpointF,PressureIn,WindDirection,WindDirectionDegrees,WindSpeedMPH,WindSpeedGustMPH,Humidity,HourlyPrecipIn,Conditions,Clouds,dailyrainin,SoftwareType,DateUTC
2013-01-23 00:03:00,25.8,5.8,30.36,WNW,290,2.0,6.0,42,0.00,,,0.00,Wunderground v.1.15,2013-01-23 05:03:00,
2013-01-23 00:07:00,25.8,5.8,30.36,WNW,298,2.0,7.0,42,0.00,,,0.00,Wunderground v.1.15,2013-01-23 05:07:00,
2013-01-23 00:09:00,25.8,5.8,30.36,WNW,292,0.0,7.0,42,0.00,,,0.00,Wunderground v.1.15,2013-01-23 05:09:00,
2013-01-23 00:14:00,25.8,5.8,30.36,South,191,4.0,4.0,42,0.00,,,0.00,Wunderground v.1.15,2013-01-23 05:14:00,
2013-01-23 00:15:00,25.8,5.8,30.36,SSW,195,0.0,4.0,42,0.00,,,0.00,Wunderground v.1.15,2013-01-23 05:15:00,
2013-01-23 00:20:00,25.8,6.3,30.36,WNW,303,0.0,2.0,43,0.00,,,0.00,Wunderground v.1.15,2013-01-23 05:20:00,
2013-01-23 00:25:00,25.8,6.3,30.36,WNW,301,0.0,2.0,43,0.00,,,0.00,Wunderground v.1.15,2013-01-23 05:25:00,
2013-01-23 00:30:00,25.8,6.9,30.36,West,264,0.0,1.0,44,0.00,,,0.00,Wunderground v.1.15,2013-01-23 05:30:00,
2013-01-23 00:36:00,25.7,6.3,30.36,West,275,0.0,4.0,43,0.00,,,0.00,Wunderground v.1.15,2013-01-23 05:36:00,
2013-01-23 00:42:00,25.7,6.8,30.36,WNW,291,4.0,4.0,44,0.00,,,0.00,Wunderground v.1.15,2013-01-23 05:42:00,
2013-01-23 00:47:00,25.7,6.3,30.36,West,269,1.0,5.0,43,0.00,,,0.00,Wunderground v.1.15,2013-01-23 05:47:00,
2013-01-23 00:53:00,25.7,6.8,30.36,West,272,0.0,2.0,44,0.00,,,0.00,Wunderground v.1.15,2013-01-23 05:53:00,
2013-01-23 00:58:00,25.7,7.3,30.36,WNW,294,1.0,2.0,45,0.00,,,0.00,Wunderground v.1.15,2013-01-23 05:58:00,
2013-01-23 01:03:00,25.7,6.8,30.36,WSW,254,6.0,6.0,44,0.00,,,0.00,Wunderground v.1.15,2013-01-23 06:03:00,
2013-01-23 01:09:00,25.7,6.8,30.36,West,273,0.0,6.0,44,0.00,,,0.00,Wunderground v.1.15,2013-01-23 06:09:00,
2013-01-23 01:15:00,25.7,6.8,30.36,West,260,0.0,4.0,44,0.00,,,0.00,Wunderground v.1.15,2013-01-23 06:15:00,
2013-01-23 01:20:00,25.7,6.8,30.36,NW,325,5.0,5.0,44,0.00,,,0.00,Wunderground v.1.15,2013-01-23 06:20:00,
2013-01-23 01:25:00,25.7,6.8,30.36,NW,315,0.0,5.0,44,0.00,,,0.00,Wunderground v.1.15,2013-01-23 06:25:00,
2013-01-23 01:30:00,25.7,7.3,30.36,NW,319,3.0,3.0,45,0.00,,,0.00,Wunderground v.1.15,2013-01-23 06:30:00,
2013-01-23 01:35:00,25.7,6.8,30.36,WNW,295,0.0,3.0,44,0.00,,,0.00,Wunderground v.1.15,2013-01-23 06:35:00,
2013-01-23 01:40:00,25.7,7.3,30.37,WNW,286,0.0,1.0,45,0.00,,,0.00,Wunderground v.1.15,2013-01-23 06:40:00,
2013-01-23 01:46:00,25.6,7.2,30.36,WNW,290,0.0,3.0,45,0.00,,,0.00,Wunderground v.1.15,2013-01-23 06:46:00,
2013-01-23 01:51:00,25.6,7.2,30.36,WNW,289,0.0,2.0,45,0.00,,,0.00,Wunderground v.1.15,2013-01-23 06:51:00,
2013-01-23 01:56:00,25.6,6.7,30.36,WNW,285,1.0,8.0,44,0.00,,,0.00,Wunderground v.1.15,2013-01-23 06:56:00,
2013-01-23 02:01:00,25.5,6.6,30.36,NW,306,2.0,2.0,44,0.00,,,0.00,Wunderground v.1.15,2013-01-23 07:01:00,
2013-01-23 02:06:00,25.5,7.1,30.37,WNW,297,0.0,6.0,45,0.00,,,0.00,Wunderground v.1.15,2013-01-23 07:06:00,
2013-01-23 02:11:00,25.5,6.6,30.37,West,261,1.0,3.0,44,0.00,,,0.00,Wunderground v.1.15,2013-01-23 07:11:00,
2013-01-23 02:16:00,25.5,7.1,30.36,West,273,0.0,4.0,45,0.00,,,0.00,Wunderground v.1.15,2013-01-23 07:16:00,
2013-01-23 02:21:00,25.4,7.0,30.37,WNW,292,0.0,1.0,45,0.00,,,0.00,Wunderground v.1.15,2013-01-23 07:21:00,
2013-01-23 02:26:00,25.4,7.0,30.37,West,271,0.0,5.0,45,0.00,,,0.00,Wunderground v.1.15,2013-01-23 07:26:00,
2013-01-23 02:31:00,25.4,7.0,30.37,West,277,0.0,1.0,45,0.00,,,0.00,Wunderground v.1.15,2013-01-23 07:31:00,
2013-01-23 02:36:00,25.4,7.0,30.37,WSW,248,0.0,2.0,45,0.00,,,0.00,Wunderground v.1.15,2013-01-23 07:36:00,
2013-01-23 02:41:00,25.4,7.5,30.37,West,271,6.0,7.0,46,0.00,,,0.00,Wunderground v.1.15,2013-01-23 07:41:00,
2013-01-23 02:46:00,25.4,7.0,30.37,WNW,290,0.0,7.0,45,0.00,,,0.00,Wunderground v.1.15,2013-01-23 07:46:00,
2013-01-23 02:51:00,25.4,7.5,30.37,West,259,4.0,4.0,46,0.00,,,0.00,Wunderground v.1.15,2013-01-23 07:51:00,
2013-01-23 02:56:00,25.4,7.5,30.37,West,271,0.0,4.0,46,0.00,,,0.00,Wunderground v.1.15,2013-01-23 07:56:00,
2013-01-23 03:01:00,25.4,7.9,30.37,SW,236,0.0,0.0,47,0.00,,,0.00,Wunderground v.1.15,2013-01-23 08:01:00,
2013-01-23 03:06:00,25.3,7.9,30.37,West,267,1.0,7.0,47,0.00,,,0.00,Wunderground v.1.15,2013-01-23 08:06:00,
2013-01-23 03:11:00,25.3,7.9,30.37,WNW,286,0.0,3.0,47,0.00,,,0.00,Wunderground v.1.15,2013-01-23 08:11:00,
2013-01-23 03:16:00,25.3,7.9,30.37,South,189,1.0,5.0,47,0.00,,,0.00,Wunderground v.1.15,2013-01-23 08:16:00,
2013-01-23 03:21:00,25.3,7.9,30.37,WSW,243,0.0,1.0,47,0.00,,,0.00,Wunderground v.1.15,2013-01-23 08:21:00,
2013-01-23 03:26:00,25.4,7.9,30.37,West,265,0.0,2.0,47,0.00,,,0.00,Wunderground v.1.15,2013-01-23 08:26:00,
2013-01-23 03:31:00,25.4,7.9,30.37,West,267,0.0,3.0,47,0.00,,,0.00,Wunderground v.1.15,2013-01-23 08:31:00,
2013-01-23 03:37:00,25.5,8.5,30.36,WSW,241,2.0,4.0,48,0.00,,,0.00,Wunderground v.1.15,2013-01-23 08:37:00,
2013-01-23 03:42:00,25.6,8.1,30.36,WSW,240,0.0,5.0,47,0.00,,,0.00,Wunderground v.1.15,2013-01-23 08:42:00,
2013-01-23 03:47:00,25.6,8.6,30.36,WNW,300,0.0,5.0,48,0.00,,,0.00,Wunderground v.1.15,2013-01-23 08:47:00,
2013-01-23 03:52:00,25.6,8.6,30.36,NW,309,3.0,4.0,48,0.00,,,0.00,Wunderground v.1.15,2013-01-23 08:52:00,
2013-01-23 03:57:00,25.7,8.7,30.37,North,350,0.0,5.0,48,0.00,,,0.00,Wunderground v.1.15,2013-01-23 08:57:00,
2013-01-23 04:02:00,25.7,9.6,30.37,WNW,282,0.0,4.0,50,0.00,,,0.00,Wunderground v.1.15,2013-01-23 09:02:00,
2013-01-23 04:07:00,25.7,9.2,30.36,WNW,287,0.0,4.0,49,0.00,,,0.00,Wunderground v.1.15,2013-01-23 09:07:00,
2013-01-23 04:12:00,25.8,8.8,30.36,WSW,250,0.0,2.0,48,0.00,,,0.00,Wunderground v.1.15,2013-01-23 09:12:00,
2013-01-23 04:17:00,25.8,9.2,30.36,WSW,254,4.0,4.0,49,0.00,,,0.00,Wunderground v.1.15,2013-01-23 09:17:00,
2013-01-23 04:22:00,25.9,9.3,30.36,WSW,239,0.0,0.0,49,0.00,,,0.00,Wunderground v.1.15,2013-01-23 09:22:00,
2013-01-23 04:27:00,25.9,9.3,30.35,West,266,0.0,6.0,49,0.00,,,0.00,Wunderground v.1.15,2013-01-23 09:27:00,
2013-01-23 04:32:00,26.0,9.4,30.35,West,277,0.0,2.0,49,0.00,,,0.00,Wunderground v.1.15,2013-01-23 09:32:00,
2013-01-23 04:37:00,26.0,9.9,30.35,WSW,249,0.0,6.0,50,0.00,,,0.00,Wunderground v.1.15,2013-01-23 09:37:00,
2013-01-23 04:42:00,26.0,9.9,30.35,SW,231,3.0,4.0,50,0.00,,,0.00,Wunderground v.1.15,2013-01-23 09:42:00,
2013-01-23 04:47:00,26.0,9.9,30.36,West,281,0.0,4.0,50,0.00,,,0.00,Wunderground v.1.15,2013-01-23 09:47:00,
2013-01-23 04:52:00,26.1,10.4,30.35,West,265,0.0,4.0,51,0.00,,,0.00,Wunderground v.1.15,2013-01-23 09:52:00,
2013-01-23 04:57:00,26.1,10.4,30.36,West,281,2.0,4.0,51,0.00,,,0.00,Wunderground v.1.15,2013-01-23 09:57:00,
2013-01-23 05:02:00,26.1,10.4,30.36,West,267,1.0,3.0,51,0.00,,,0.00,Wunderground v.1.15,2013-01-23 10:02:00,
2013-01-23 05:07:00,26.2,10.5,30.36,NW,317,0.0,5.0,51,0.00,,,0.00,Wunderground v.1.15,2013-01-23 10:07:00,
2013-01-23 05:12:00,26.2,11.4,30.35,WSW,258,0.0,6.0,53,0.00,,,0.00,Wunderground v.1.15,2013-01-23 10:12:00,
2013-01-23 05:17:00,26.2,11.4,30.36,WSW,239,0.0,6.0,53,0.00,,,0.00,Wunderground v.1.15,2013-01-23 10:17:00,
2013-01-23 05:23:00,26.2,10.9,30.36,SW,225,0.0,3.0,52,0.00,,,0.00,Wunderground v.1.15,2013-01-23 10:23:00,
2013-01-23 05:28:00,26.2,10.5,30.36,WNW,298,0.0,7.0,51,0.00,,,0.00,Wunderground v.1.15,2013-01-23 10:28:00,
2013-01-23 05:33:00,26.3,11.0,30.36,WNW,299,4.0,6.0,52,0.00,,,0.00,Wunderground v.1.15,2013-01-23 10:33:00,
2013-01-23 05:38:00,26.3,11.0,30.36,NW,306,0.0,6.0,52,0.00,,,0.00,Wunderground v.1.15,2013-01-23 10:38:00,
2013-01-23 05:43:00,26.3,11.5,30.36,WNW,295,2.0,5.0,53,0.00,,,0.00,Wunderground v.1.15,2013-01-23 10:43:00,
2013-01-23 05:48:00,26.4,11.6,30.36,WNW,288,1.0,6.0,53,0.00,,,0.00,Wunderground v.1.15,2013-01-23 10:48:00,
2013-01-23 05:53:00,26.5,11.7,30.36,WNW,288,2.0,2.0,53,0.00,,,0.00,Wunderground v.1.15,2013-01-23 10:53:00,
2013-01-23 05:58:00,26.5,12.1,30.36,West,271,0.0,2.0,54,0.00,,,0.00,Wunderground v.1.15,2013-01-23 10:58:00,
2013-01-23 06:03:00,26.5,11.7,30.36,WNW,293,0.0,3.0,53,0.00,,,0.00,Wunderground v.1.15,2013-01-23 11:03:00,
2013-01-23 06:08:00,26.5,11.7,30.36,WNW,296,0.0,3.0,53,0.00,,,0.00,Wunderground v.1.15,2013-01-23 11:08:00,
2013-01-23 06:13:00,26.6,11.7,30.36,West,279,1.0,3.0,53,0.00,,,0.00,Wunderground v.1.15,2013-01-23 11:13:00,
2013-01-23 06:18:00,26.7,12.3,30.37,WNW,284,0.0,3.0,54,0.00,,,0.00,Wunderground v.1.15,2013-01-23 11:18:00,
2013-01-23 06:23:00,26.7,12.3,30.37,NNW,338,0.0,2.0,54,0.00,,,0.00,Wunderground v.1.15,2013-01-23 11:23:00,
2013-01-23 06:28:00,26.7,12.3,30.37,WNW,287,2.0,5.0,54,0.00,,,0.00,Wunderground v.1.15,2013-01-23 11:28:00,
2013-01-23 06:33:00,26.7,12.3,30.38,NW,325,1.0,3.0,54,0.00,,,0.00,Wunderground v.1.15,2013-01-23 11:33:00,
2013-01-23 06:38:00,26.8,12.4,30.38,West,272,0.0,5.0,54,0.00,,,0.00,Wunderground v.1.15,2013-01-23 11:38:00,
2013-01-23 06:43:00,26.8,12.8,30.38,WNW,296,0.0,5.0,55,0.00,,,0.00,Wunderground v.1.15,2013-01-23 11:43:00,
2013-01-23 06:48:00,26.8,12.4,30.38,WNW,285,1.0,6.0,54,0.00,,,0.00,Wunderground v.1.15,2013-01-23 11:48:00,
2013-01-23 06:53:00,26.8,12.4,30.38,West,264,0.0,5.0,54,0.00,,,0.00,Wunderground v.1.15,2013-01-23 11:53:00,
2013-01-23 06:58:00,26.7,12.3,30.38,WNW,297,0.0,5.0,54,0.00,,,0.00,Wunderground v.1.15,2013-01-23 11:58:00,
2013-01-23 07:03:00,26.7,12.3,30.38,WNW,283,2.0,7.0,54,0.00,,,0.00,Wunderground v.1.15,2013-01-23 12:03:00,
2013-01-23 07:08:00,26.6,13.8,30.38,NW,317,2.0,7.0,58,0.00,,,0.00,Wunderground v.1.15,2013-01-23 12:08:00,
2013-01-23 07:13:00,26.6,12.6,30.38,West,263,0.0,4.0,55,0.00,,,0.00,Wunderground v.1.15,2013-01-23 12:13:00,
2013-01-23 07:18:00,26.5,12.5,30.39,West,275,0.0,5.0,55,0.00,,,0.00,Wunderground v.1.15,2013-01-23 12:18:00,
2013-01-23 07:23:00,26.4,12.8,30.39,WNW,286,0.0,6.0,56,0.00,,,0.00,Wunderground v.1.15,2013-01-23 12:23:00,
2013-01-23 07:28:00,26.3,12.7,30.39,West,269,0.0,6.0,56,0.00,,,0.00,Wunderground v.1.15,2013-01-23 12:28:00,
2013-01-23 07:33:00,26.2,13.0,30.39,West,274,0.0,1.0,57,0.00,,,0.00,Wunderground v.1.15,2013-01-23 12:33:00,
2013-01-23 07:38:00,26.0,12.8,30.39,WNW,292,3.0,3.0,57,0.00,,,0.00,Wunderground v.1.15,2013-01-23 12:38:00,
2013-01-23 07:43:00,25.9,12.7,30.39,West,267,0.0,1.0,57,0.00,,,0.00,Wunderground v.1.15,2013-01-23 12:43:00,
2013-01-23 07:48:00,25.9,12.7,30.39,NW,315,0.0,4.0,57,0.00,,,0.00,Wunderground v.1.15,2013-01-23 12:48:00,
2013-01-23 07:53:00,26.0,12.8,30.39,WNW,287,0.0,3.0,57,0.00,,,0.00,Wunderground v.1.15,2013-01-23 12:53:00,
2013-01-23 07:58:00,26.2,13.0,30.39,WNW,296,0.0,4.0,57,0.00,,,0.00,Wunderground v.1.15,2013-01-23 12:58:00,
2013-01-23 08:03:00,26.3,12.7,30.39,West,277,0.0,4.0,56,0.00,,,0.00,Wunderground v.1.15,2013-01-23 13:03:00,
2013-01-23 08:08:00,26.5,12.5,30.39,West,268,0.0,4.0,55,0.00,,,0.00,Wunderground v.1.15,2013-01-23 13:08:00,
2013-01-23 08:13:00,26.6,13.0,30.39,WSW,257,0.0,3.0,56,0.00,,,0.00,Wunderground v.1.15,2013-01-23 13:13:00,
2013-01-23 08:18:00,26.8,13.2,30.39,WNW,288,0.0,3.0,56,0.00,,,0.00,Wunderground v.1.15,2013-01-23 13:18:00,
2013-01-23 08:23:00,26.9,13.7,30.39,WNW,286,2.0,4.0,57,0.00,,,0.00,Wunderground v.1.15,2013-01-23 13:23:00,
2013-01-23 08:28:00,27.0,13.8,30.39,WNW,286,0.0,4.0,57,0.00,,,0.00,Wunderground v.1.15,2013-01-23 13:28:00,
2013-01-23 08:33:00,27.2,13.6,30.39,WNW,290,0.0,3.0,56,0.00,,,0.00,Wunderground v.1.15,2013-01-23 13:33:00,
2013-01-23 08:38:00,27.3,13.7,30.39,West,271,0.0,3.0,56,0.00,,,0.00,Wunderground v.1.15,2013-01-23 13:38:00,
2013-01-23 08:43:00,27.5,13.8,30.39,West,281,0.0,0.0,56,0.00,,,0.00,Wunderground v.1.15,2013-01-23 13:43:00,
2013-01-23 08:48:00,27.6,13.9,30.39,NW,306,0.0,4.0,56,0.00,,,0.00,Wunderground v.1.15,2013-01-23 13:48:00,
2013-01-23 08:53:00,27.8,14.1,30.39,NW,304,1.0,4.0,56,0.00,,,0.00,Wunderground v.1.15,2013-01-23 13:53:00,
2013-01-23 08:58:00,27.9,14.2,30.39,WNW,290,2.0,4.0,56,0.00,,,0.00,Wunderground v.1.15,2013-01-23 13:58:00,
2013-01-23 09:03:00,28.1,14.0,30.39,NW,313,1.0,3.0,55,0.00,,,0.00,Wunderground v.1.15,2013-01-23 14:03:00,
2013-01-23 09:08:00,28.1,14.0,30.39,WNW,290,0.0,6.0,55,0.00,,,0.00,Wunderground v.1.15,2013-01-23 14:08:00,
2013-01-23 09:13:00,28.3,14.2,30.39,WNW,300,0.0,3.0,55,0.00,,,0.00,Wunderground v.1.15,2013-01-23 14:13:00,
2013-01-23 09:18:00,28.4,14.3,30.39,SW,221,1.0,5.0,55,0.00,,,0.00,Wunderground v.1.15,2013-01-23 14:18:00,
2013-01-23 09:23:00,28.5,14.4,30.40,NNW,327,0.0,9.0,55,0.00,,,0.00,Wunderground v.1.15,2013-01-23 14:23:00,
2013-01-23 09:28:00,28.7,14.6,30.39,West,279,0.0,9.0,55,0.00,,,0.00,Wunderground v.1.15,2013-01-23 14:28:00,
2013-01-23 09:33:00,28.9,14.7,30.40,West,273,0.0,2.0,55,0.00,,,0.00,Wunderground v.1.15,2013-01-23 14:33:00,
2013-01-23 09:38:00,29.2,15.0,30.40,NW,321,0.0,4.0,55,0.00,,,0.00,Wunderground v.1.15,2013-01-23 14:38:00,
2013-01-23 09:43:00,29.5,15.3,30.40,WNW,290,3.0,6.0,55,0.00,,,0.00,Wunderground v.1.15,2013-01-23 14:43:00,
2013-01-23 09:48:00,29.8,15.6,30.40,WNW,303,0.0,6.0,55,0.00,,,0.00,Wunderground v.1.15,2013-01-23 14:48:00,
2013-01-23 09:53:00,30.1,15.9,30.40,NNW,337,0.0,4.0,55,0.00,,,0.00,Wunderground v.1.15,2013-01-23 14:53:00,
2013-01-23 09:58:00,30.4,16.1,30.41,West,265,0.0,6.0,55,0.00,,,0.00,Wunderground v.1.15,2013-01-23 14:58:00,
2013-01-23 10:03:00,30.7,16.4,30.41,WNW,294,2.0,5.0,55,0.00,,,0.00,Wunderground v.1.15,2013-01-23 15:03:00,
2013-01-23 10:08:00,30.9,15.8,30.41,WNW,284,3.0,5.0,53,0.00,,,0.00,Wunderground v.1.15,2013-01-23 15:08:00,
2013-01-23 10:13:00,30.9,15.8,30.41,WNW,298,6.0,6.0,53,0.00,,,0.00,Wunderground v.1.15,2013-01-23 15:13:00,
2013-01-23 10:18:00,31.0,15.8,30.41,WSW,256,0.0,8.0,53,0.00,,,0.00,Wunderground v.1.15,2013-01-23 15:18:00,
2013-01-23 10:23:00,31.0,15.8,30.42,WNW,292,2.0,5.0,53,0.00,,,0.00,Wunderground v.1.15,2013-01-23 15:23:00,
2013-01-23 10:28:00,31.1,15.9,30.42,SW,236,3.0,6.0,53,0.00,,,0.00,Wunderground v.1.15,2013-01-23 15:28:00,
2013-01-23 10:33:00,31.1,15.9,30.43,WNW,296,0.0,7.0,53,0.00,,,0.00,Wunderground v.1.15,2013-01-23 15:33:00,
2013-01-23 10:38:00,31.1,15.9,30.42,West,281,0.0,7.0,53,0.00,,,0.00,Wunderground v.1.15,2013-01-23 15:38:00,
2013-01-23 10:43:00,31.2,16.0,30.42,NW,306,0.0,5.0,53,0.00,,,0.00,Wunderground v.1.15,2013-01-23 15:43:00,
2013-01-23 10:48:00,31.5,16.3,30.42,SW,227,3.0,9.0,53,0.00,,,0.00,Wunderground v.1.15,2013-01-23 15:48:00,
2013-01-23 10:53:00,31.7,16.1,30.43,NW,309,2.0,6.0,52,0.00,,,0.00,Wunderground v.1.15,2013-01-23 15:53:00,
2013-01-23 10:58:00,31.7,16.1,30.42,West,263,0.0,12.0,52,0.00,,,0.00,Wunderground v.1.15,2013-01-23 15:58:00,
2013-01-23 11:03:00,31.9,16.7,30.42,SSW,209,2.0,4.0,53,0.00,,,0.00,Wunderground v.1.15,2013-01-23 16:03:00,
2013-01-23 11:08:00,32.1,16.4,30.42,WNW,289,0.0,5.0,52,0.00,,,0.00,Wunderground v.1.15,2013-01-23 16:08:00,
2013-01-23 11:13:00,32.2,16.5,30.41,WNW,286,0.0,6.0,52,0.00,,,0.00,Wunderground v.1.15,2013-01-23 16:13:00,
2013-01-23 11:18:00,32.3,16.6,30.41,WSW,252,0.0,6.0,52,0.00,,,0.00,Wunderground v.1.15,2013-01-23 16:18:00,
2013-01-23 11:23:00,32.3,16.6,30.41,WNW,291,1.0,6.0,52,0.00,,,0.00,Wunderground v.1.15,2013-01-23 16:23:00,
2013-01-23 11:28:00,32.5,16.8,30.41,NW,309,3.0,6.0,52,0.00,,,0.00,Wunderground v.1.15,2013-01-23 16:28:00,
2013-01-23 11:33:00,32.7,17.0,30.42,WNW,296,2.0,5.0,52,0.00,,,0.00,Wunderground v.1.15,2013-01-23 16:33:00,
2013-01-23 11:38:00,33.0,17.3,30.41,West,262,6.0,6.0,52,0.00,,,0.00,Wunderground v.1.15,2013-01-23 16:38:00,
2013-01-23 11:43:00,33.1,16.9,30.41,NNW,334,2.0,6.0,51,0.00,,,0.00,Wunderground v.1.15,2013-01-23 16:43:00,
2013-01-23 11:48:00,33.4,17.2,30.41,NE,49,1.0,10.0,51,0.00,,,0.00,Wunderground v.1.15,2013-01-23 16:48:00,
2013-01-23 11:53:00,33.6,17.4,30.41,SSE,151,0.0,8.0,51,0.00,,,0.00,Wunderground v.1.15,2013-01-23 16:53:00,
2013-01-23 11:58:00,33.8,17.6,30.40,WSW,248,0.0,8.0,51,0.00,,,0.00,Wunderground v.1.15,2013-01-23 16:58:00,
2013-01-23 12:03:00,34.0,17.7,30.39,West,269,1.0,9.0,51,0.00,,,0.00,Wunderground v.1.15,2013-01-23 17:03:00,
2013-01-23 12:08:00,34.2,18.4,30.39,WNW,286,0.0,9.0,52,0.00,,,0.00,Wunderground v.1.15,2013-01-23 17:08:00,
2013-01-23 12:13:00,34.4,18.1,30.38,WNW,294,0.0,7.0,51,0.00,,,0.00,Wunderground v.1.15,2013-01-23 17:13:00,
2013-01-23 12:18:00,34.7,18.4,30.38,West,277,1.0,7.0,51,0.00,,,0.00,Wunderground v.1.15,2013-01-23 17:18:00,
2013-01-23 12:23:00,35.2,18.4,30.38,NNW,339,0.0,8.0,50,0.00,,,0.00,Wunderground v.1.15,2013-01-23 17:23:00,
2013-01-23 12:28:00,35.9,19.0,30.38,SW,230,4.0,8.0,50,0.00,,,0.00,Wunderground v.1.15,2013-01-23 17:28:00,
2013-01-23 12:33:00,36.3,19.4,30.37,WNW,292,2.0,8.0,50,0.00,,,0.00,Wunderground v.1.15,2013-01-23 17:33:00,
2013-01-23 12:38:00,36.4,19.5,30.36,West,281,1.0,9.0,50,0.00,,,0.00,Wunderground v.1.15,2013-01-23 17:38:00,
2013-01-23 12:43:00,36.6,19.7,30.35,West,277,4.0,8.0,50,0.00,,,0.00,Wunderground v.1.15,2013-01-23 17:43:00,
2013-01-23 12:48:00,36.9,20.0,30.35,NNW,329,0.0,8.0,50,0.00,,,0.00,Wunderground v.1.15,2013-01-23 17:48:00,
2013-01-23 12:53:00,36.9,20.4,30.35,West,267,7.0,7.0,51,0.00,,,0.00,Wunderground v.1.15,2013-01-23 17:53:00,
2013-01-23 12:58:00,37.1,21.1,30.34,North,9,2.0,8.0,52,0.00,,,0.00,Wunderground v.1.15,2013-01-23 17:58:00,
2013-01-23 13:03:00,37.8,22.2,30.34,ESE,117,1.0,4.0,53,0.00,,,0.00,Wunderground v.1.15,2013-01-23 18:03:00,
2013-01-23 13:08:00,38.5,23.3,30.33,NNW,347,2.0,11.0,54,0.00,,,0.00,Wunderground v.1.15,2013-01-23 18:08:00,
2013-01-23 13:13:00,39.1,22.5,30.33,WNW,290,0.0,8.0,51,0.00,,,0.00,Wunderground v.1.15,2013-01-23 18:13:00,
2013-01-23 13:18:00,39.7,22.6,30.33,West,264,1.0,8.0,50,0.00,,,0.00,Wunderground v.1.15,2013-01-23 18:18:00,
2013-01-23 13:23:00,40.0,22.8,30.33,NNW,327,1.0,4.0,50,0.00,,,0.00,Wunderground v.1.15,2013-01-23 18:23:00,
2013-01-23 13:28:00,40.3,22.6,30.32,NNE,23,0.0,4.0,49,0.00,,,0.00,Wunderground v.1.15,2013-01-23 18:28:00,
2013-01-23 13:33:00,40.4,22.7,30.32,WNW,302,2.0,6.0,49,0.00,,,0.00,Wunderground v.1.15,2013-01-23 18:33:00,
2013-01-23 13:38:00,40.7,23.0,30.32,WNW,284,0.0,7.0,49,0.00,,,0.00,Wunderground v.1.15,2013-01-23 18:38:00,
2013-01-23 13:43:00,40.7,23.0,30.32,NW,321,0.0,6.0,49,0.00,,,0.00,Wunderground v.1.15,2013-01-23 18:43:00,
2013-01-23 13:48:00,40.8,24.1,30.31,North,5,2.0,6.0,51,0.00,,,0.00,Wunderground v.1.15,2013-01-23 18:48:00,
2013-01-23 13:53:00,41.2,23.9,30.31,WNW,288,1.0,9.0,50,0.00,,,0.00,Wunderground v.1.15,2013-01-23 18:53:00,
2013-01-23 13:58:00,41.5,24.2,30.31,NW,315,2.0,9.0,50,0.00,,,0.00,Wunderground v.1.15,2013-01-23 18:58:00,
2013-01-23 14:03:00,41.5,24.2,30.30,NNW,330,5.0,6.0,50,0.00,,,0.00,Wunderground v.1.15,2013-01-23 19:03:00,
2013-01-23 14:08:00,41.6,24.8,30.30,NNW,335,4.0,7.0,51,0.00,,,0.00,Wunderground v.1.15,2013-01-23 19:08:00,
2013-01-23 14:13:00,41.8,25.0,30.31,WNW,296,0.0,5.0,51,0.00,,,0.00,Wunderground v.1.15,2013-01-23 19:13:00,
2013-01-23 14:18:00,42.4,25.5,30.30,NW,312,0.0,9.0,51,0.00,,,0.00,Wunderground v.1.15,2013-01-23 19:18:00,
2013-01-23 14:23:00,42.7,25.3,30.30,WNW,292,2.0,8.0,50,0.00,,,0.00,Wunderground v.1.15,2013-01-23 19:23:00,
2013-01-23 14:28:00,42.9,26.0,30.30,WNW,301,1.0,8.0,51,0.00,,,0.00,Wunderground v.1.15,2013-01-23 19:28:00,
2013-01-23 14:33:00,43.0,25.6,30.29,North,5,3.0,9.0,50,0.00,,,0.00,Wunderground v.1.15,2013-01-23 19:33:00,
2013-01-23 14:38:00,42.7,25.3,30.29,North,355,9.0,9.0,50,0.00,,,0.00,Wunderground v.1.15,2013-01-23 19:38:00,
2013-01-23 14:43:00,42.6,25.2,30.29,NNE,27,0.0,8.0,50,0.00,,,0.00,Wunderground v.1.15,2013-01-23 19:43:00,
2013-01-23 14:48:00,42.9,26.0,30.29,North,10,0.0,8.0,51,0.00,,,0.00,Wunderground v.1.15,2013-01-23 19:48:00,
2013-01-23 14:53:00,43.4,26.0,30.29,WNW,284,3.0,9.0,50,0.00,,,0.00,Wunderground v.1.15,2013-01-23 19:53:00,
2013-01-23 14:58:00,43.9,26.4,30.29,WNW,288,5.0,9.0,50,0.00,,,0.00,Wunderground v.1.15,2013-01-23 19:58:00,
2013-01-23 15:03:00,44.0,26.0,30.29,WNW,291,4.0,8.0,49,0.00,,,0.00,Wunderground v.1.15,2013-01-23 20:03:00,
2013-01-23 15:08:00,43.8,25.4,30.29,North,355,1.0,8.0,48,0.00,,,0.00,Wunderground v.1.15,2013-01-23 20:08:00,
2013-01-23 15:13:00,43.6,25.2,30.28,NW,317,2.0,5.0,48,0.00,,,0.00,Wunderground v.1.15,2013-01-23 20:13:00,
2013-01-23 15:18:00,43.9,26.0,30.28,West,267,2.0,6.0,49,0.00,,,0.00,Wunderground v.1.15,2013-01-23 20:18:00,
2013-01-23 15:23:00,44.2,26.2,30.28,NW,318,1.0,3.0,49,0.00,,,0.00,Wunderground v.1.15,2013-01-23 20:23:00,
2013-01-23 15:28:00,44.5,26.0,30.27,NNW,339,0.0,6.0,48,0.00,,,0.00,Wunderground v.1.15,2013-01-23 20:28:00,
2013-01-23 15:33:00,44.8,26.8,30.27,WNW,297,1.0,4.0,49,0.00,,,0.00,Wunderground v.1.15,2013-01-23 20:33:00,
2013-01-23 15:38:00,45.0,26.5,30.27,North,355,3.0,6.0,48,0.00,,,0.00,Wunderground v.1.15,2013-01-23 20:38:00,
2013-01-23 15:43:00,44.9,26.4,30.27,NW,321,3.0,8.0,48,0.00,,,0.00,Wunderground v.1.15,2013-01-23 20:43:00,
2013-01-23 15:49:00,44.5,26.0,30.27,North,350,8.0,8.0,48,0.00,,,0.00,Wunderground v.1.15,2013-01-23 20:49:00,
2013-01-23 15:54:00,44.4,26.4,30.27,NNW,341,7.0,7.0,49,0.00,,,0.00,Wunderground v.1.15,2013-01-23 20:54:00,
2013-01-23 15:59:00,44.2,26.2,30.26,NW,319,1.0,8.0,49,0.00,,,0.00,Wunderground v.1.15,2013-01-23 20:59:00,
2013-01-23 16:04:00,44.1,25.6,30.26,NNW,340,2.0,4.0,48,0.00,,,0.00,Wunderground v.1.15,2013-01-23 21:04:00,
2013-01-23 16:09:00,43.9,26.0,30.26,West,265,1.0,6.0,49,0.00,,,0.00,Wunderground v.1.15,2013-01-23 21:09:00,
2013-01-23 16:14:00,43.8,25.9,30.26,NNW,342,2.0,4.0,49,0.00,,,0.00,Wunderground v.1.15,2013-01-23 21:14:00,
2013-01-23 16:18:00,43.6,25.7,30.26,NW,309,0.0,8.0,49,0.00,,,0.00,Wunderground v.1.15,2013-01-23 21:18:00,
2013-01-23 16:23:00,43.5,26.1,30.26,NNW,333,1.0,8.0,50,0.00,,,0.00,Wunderground v.1.15,2013-01-23 21:23:00,
2013-01-23 16:28:00,43.2,25.8,30.26,WNW,298,0.0,8.0,50,0.00,,,0.00,Wunderground v.1.15,2013-01-23 21:28:00,
2013-01-23 16:33:00,42.9,25.5,30.26,North,355,2.0,4.0,50,0.00,,,0.00,Wunderground v.1.15,2013-01-23 21:33:00,
2013-01-23 16:38:00,42.8,25.4,30.26,NW,319,0.0,7.0,50,0.00,,,0.00,Wunderground v.1.15,2013-01-23 21:38:00,
2013-01-23 16:43:00,42.5,25.1,30.26,North,355,0.0,6.0,50,0.00,,,0.00,Wunderground v.1.15,2013-01-23 21:43:00,
2013-01-23 16:48:00,42.3,25.4,30.26,NW,311,0.0,7.0,51,0.00,,,0.00,Wunderground v.1.15,2013-01-23 21:48:00,
2013-01-23 16:53:00,42.2,24.9,30.26,NNW,329,0.0,5.0,50,0.00,,,0.00,Wunderground v.1.15,2013-01-23 21:53:00,
2013-01-23 16:58:00,42.0,24.7,30.26,NNW,338,3.0,6.0,50,0.00,,,0.00,Wunderground v.1.15,2013-01-23 21:58:00,
2013-01-23 17:03:00,41.8,25.0,30.26,WNW,284,0.0,4.0,51,0.00,,,0.00,Wunderground v.1.15,2013-01-23 22:03:00,
2013-01-23 17:08:00,41.6,24.8,30.26,WNW,284,0.0,4.0,51,0.00,,,0.00,Wunderground v.1.15,2013-01-23 22:08:00,
2013-01-23 17:13:00,41.4,25.1,30.26,WNW,286,0.0,1.0,52,0.00,,,0.00,Wunderground v.1.15,2013-01-23 22:13:00,
2013-01-23 17:18:00,41.1,24.8,30.26,NW,319,7.0,7.0,52,0.00,,,0.00,Wunderground v.1.15,2013-01-23 22:18:00,
2013-01-23 17:23:00,40.9,24.6,30.25,NW,313,1.0,3.0,52,0.00,,,0.00,Wunderground v.1.15,2013-01-23 22:23:00,
2013-01-23 17:28:00,40.7,24.9,30.26,WNW,288,0.0,4.0,53,0.00,,,0.00,Wunderground v.1.15,2013-01-23 22:28:00,
2013-01-23 17:33:00,40.4,24.6,30.26,WNW,288,0.0,1.0,53,0.00,,,0.00,Wunderground v.1.15,2013-01-23 22:33:00,
2013-01-23 17:38:00,40.0,24.7,30.26,WNW,288,0.0,3.0,54,0.00,,,0.00,Wunderground v.1.15,2013-01-23 22:38:00,
2013-01-23 17:43:00,39.7,24.4,30.26,WNW,287,0.0,3.0,54,0.00,,,0.00,Wunderground v.1.15,2013-01-23 22:43:00,
2013-01-23 17:48:00,39.3,24.5,30.26,WNW,287,0.0,3.0,55,0.00,,,0.00,Wunderground v.1.15,2013-01-23 22:48:00,
2013-01-23 17:53:00,39.0,24.2,30.26,WNW,287,0.0,2.0,55,0.00,,,0.00,Wunderground v.1.15,2013-01-23 22:53:00,
2013-01-23 17:58:00,38.7,23.9,30.26,WNW,287,0.0,2.0,55,0.00,,,0.00,Wunderground v.1.15,2013-01-23 22:58:00,
2013-01-23 18:03:00,38.3,24.0,30.26,WNW,287,0.0,1.0,56,0.00,,,0.00,Wunderground v.1.15,2013-01-23 23:03:00,
2013-01-23 18:08:00,37.9,23.6,30.26,WNW,287,0.0,1.0,56,0.00,,,0.00,Wunderground v.1.15,2013-01-23 23:08:00,
2013-01-23 18:13:00,37.6,23.7,30.25,WNW,287,0.0,1.0,57,0.00,,,0.00,Wunderground v.1.15,2013-01-23 23:13:00,
2013-01-23 18:18:00,37.3,23.4,30.26,WNW,287,0.0,1.0,57,0.00,,,0.00,Wunderground v.1.15,2013-01-23 23:18:00,
2013-01-23 18:23:00,37.0,23.6,30.26,WNW,287,0.0,1.0,58,0.00,,,0.00,Wunderground v.1.15,2013-01-23 23:23:00,
2013-01-23 18:28:00,36.8,23.4,30.26,WNW,287,0.0,1.0,58,0.00,,,0.00,Wunderground v.1.15,2013-01-23 23:28:00,
2013-01-23 18:34:00,36.5,23.5,30.26,WNW,287,1.0,3.0,59,0.00,,,0.00,Wunderground v.1.15,2013-01-23 23:34:00,
2013-01-23 18:39:00,36.4,23.4,30.26,WNW,287,1.0,3.0,59,0.00,,,0.00,Wunderground v.1.15,2013-01-23 23:39:00,
2013-01-23 18:44:00,36.2,23.2,30.26,WNW,286,0.0,1.0,59,0.00,,,0.00,Wunderground v.1.15,2013-01-23 23:44:00,
2013-01-23 18:49:00,36.2,23.2,30.26,WNW,286,0.0,3.0,59,0.00,,,0.00,Wunderground v.1.15,2013-01-23 23:49:00,
2013-01-23 18:54:00,36.1,23.5,30.26,West,267,3.0,3.0,60,0.00,,,0.00,Wunderground v.1.15,2013-01-23 23:54:00,
2013-01-23 18:59:00,36.0,23.4,30.26,West,259,2.0,3.0,60,0.00,,,0.00,Wunderground v.1.15,2013-01-23 23:59:00,
2013-01-23 19:04:00,36.0,23.4,30.26,West,259,0.0,1.0,60,0.00,,,0.00,Wunderground v.1.15,2013-01-24 00:04:00,
2013-01-23 19:09:00,35.8,23.3,30.26,West,259,0.0,1.0,60,0.00,,,0.00,Wunderground v.1.15,2013-01-24 00:09:00,
2013-01-23 19:14:00,35.5,23.4,30.27,West,259,0.0,1.0,61,0.00,,,0.00,Wunderground v.1.15,2013-01-24 00:14:00,
2013-01-23 19:19:00,35.3,23.2,30.26,WSW,257,0.0,1.0,61,0.00,,,0.00,Wunderground v.1.15,2013-01-24 00:19:00,
2013-01-23 19:24:00,35.2,23.5,30.26,WSW,257,0.0,1.0,62,0.00,,,0.00,Wunderground v.1.15,2013-01-24 00:24:00,
2013-01-23 19:29:00,35.1,23.4,30.26,WSW,257,0.0,1.0,62,0.00,,,0.00,Wunderground v.1.15,2013-01-24 00:29:00,
2013-01-23 19:34:00,34.9,23.6,30.25,WSW,257,0.0,1.0,63,0.00,,,0.00,Wunderground v.1.15,2013-01-24 00:34:00,
2013-01-23 19:39:00,34.8,23.5,30.25,WSW,257,0.0,1.0,63,0.00,,,0.00,Wunderground v.1.15,2013-01-24 00:39:00,
2013-01-23 19:44:00,34.8,23.9,30.25,WSW,257,0.0,0.0,64,0.00,,,0.00,Wunderground v.1.15,2013-01-24 00:44:00,
2013-01-23 19:49:00,34.7,23.8,30.25,WSW,256,0.0,2.0,64,0.00,,,0.00,Wunderground v.1.15,2013-01-24 00:49:00,
2013-01-23 19:54:00,34.7,23.8,30.25,WSW,256,0.0,1.0,64,0.00,,,0.00,Wunderground v.1.15,2013-01-24 00:54:00,
2013-01-23 19:59:00,34.7,23.8,30.25,WSW,255,0.0,2.0,64,0.00,,,0.00,Wunderground v.1.15,2013-01-24 00:59:00,
2013-01-23 20:04:00,34.6,24.0,30.25,WSW,255,0.0,0.0,65,0.00,,,0.00,Wunderground v.1.15,2013-01-24 01:04:00,
2013-01-23 20:09:00,34.4,23.8,30.25,WSW,255,0.0,0.0,65,0.00,,,0.00,Wunderground v.1.15,2013-01-24 01:09:00,
2013-01-23 20:14:00,34.4,24.2,30.25,WSW,255,0.0,1.0,66,0.00,,,0.00,Wunderground v.1.15,2013-01-24 01:14:00,
2013-01-23 20:19:00,34.4,24.2,30.26,WSW,255,0.0,1.0,66,0.00,,,0.00,Wunderground v.1.15,2013-01-24 01:19:00,
2013-01-23 20:24:00,34.4,24.2,30.25,WSW,255,0.0,0.0,66,0.00,,,0.00,Wunderground v.1.15,2013-01-24 01:24:00,
2013-01-23 20:29:00,34.2,24.0,30.25,WSW,255,0.0,0.0,66,0.00,,,0.00,Wunderground v.1.15,2013-01-24 01:29:00,
2013-01-23 20:34:00,34.2,24.4,30.25,WSW,255,0.0,1.0,67,0.00,,,0.00,Wunderground v.1.15,2013-01-24 01:34:00,
2013-01-23 20:39:00,34.2,24.4,30.25,WSW,255,0.0,1.0,67,0.00,,,0.00,Wunderground v.1.15,2013-01-24 01:39:00,
2013-01-23 20:44:00,34.2,24.4,30.25,WSW,255,0.0,3.0,67,0.00,,,0.00,Wunderground v.1.15,2013-01-24 01:44:00,
2013-01-23 20:49:00,34.2,24.4,30.25,WSW,255,0.0,3.0,67,0.00,,,0.00,Wunderground v.1.15,2013-01-24 01:49:00,
2013-01-23 20:54:00,34.2,24.4,30.26,WSW,255,0.0,0.0,67,0.00,,,0.00,Wunderground v.1.15,2013-01-24 01:54:00,
2013-01-23 20:59:00,34.1,24.3,30.26,WSW,255,0.0,0.0,67,0.00,,,0.00,Wunderground v.1.15,2013-01-24 01:59:00,
2013-01-23 21:04:00,33.9,24.4,30.26,WSW,255,0.0,0.0,68,0.00,,,0.00,Wunderground v.1.15,2013-01-24 02:04:00,
2013-01-23 21:09:00,33.7,24.3,30.25,WSW,255,0.0,0.0,68,0.00,,,0.00,Wunderground v.1.15,2013-01-24 02:09:00,
2013-01-23 21:14:00,33.5,24.1,30.25,WSW,255,0.0,0.0,68,0.00,,,0.00,Wunderground v.1.15,2013-01-24 02:14:00,
2013-01-23 21:19:00,33.5,24.4,30.24,WSW,255,0.0,0.0,69,0.00,,,0.00,Wunderground v.1.15,2013-01-24 02:19:00,
2013-01-23 21:24:00,33.5,24.1,30.24,WSW,255,0.0,0.0,68,0.00,,,0.00,Wunderground v.1.15,2013-01-24 02:24:00,
2013-01-23 21:29:00,33.4,24.3,30.23,WSW,255,0.0,1.0,69,0.00,,,0.00,Wunderground v.1.15,2013-01-24 02:29:00,
2013-01-23 21:34:00,33.3,24.2,30.23,WSW,255,0.0,0.0,69,0.00,,,0.00,Wunderground v.1.15,2013-01-24 02:34:00,
2013-01-23 21:39:00,33.2,24.1,30.23,WSW,255,0.0,0.0,69,0.00,,,0.00,Wunderground v.1.15,2013-01-24 02:39:00,
2013-01-23 21:44:00,33.1,24.0,30.23,WSW,255,0.0,0.0,69,0.00,,,0.00,Wunderground v.1.15,2013-01-24 02:44:00,
2013-01-23 21:49:00,33.1,24.0,30.23,WSW,255,0.0,0.0,69,0.00,,,0.00,Wunderground v.1.15,2013-01-24 02:49:00,
2013-01-23 21:54:00,33.0,23.9,30.24,WSW,255,0.0,0.0,69,0.00,,,0.00,Wunderground v.1.15,2013-01-24 02:54:00,
2013-01-23 21:59:00,32.8,24.1,30.24,WSW,255,0.0,0.0,70,0.00,,,0.00,Wunderground v.1.15,2013-01-24 02:59:00,
2013-01-23 22:04:00,32.6,24.2,30.24,WSW,255,0.0,0.0,71,0.00,,,0.00,Wunderground v.1.15,2013-01-24 03:04:00,
2013-01-23 22:09:00,32.4,24.0,30.24,WSW,255,0.0,0.0,71,0.00,,,0.00,Wunderground v.1.15,2013-01-24 03:09:00,
2013-01-23 22:14:00,32.4,24.0,30.23,WSW,255,0.0,0.0,71,0.00,,,0.00,Wunderground v.1.15,2013-01-24 03:14:00,
2013-01-23 22:19:00,32.5,24.5,30.23,WSW,255,0.0,1.0,72,0.00,,,0.00,Wunderground v.1.15,2013-01-24 03:19:00,
2013-01-23 22:24:00,32.5,24.5,30.23,WSW,255,0.0,0.0,72,0.00,,,0.00,Wunderground v.1.15,2013-01-24 03:24:00,
2013-01-23 22:29:00,32.6,24.6,30.24,WSW,255,0.0,0.0,72,0.00,,,0.00,Wunderground v.1.15,2013-01-24 03:29:00,
2013-01-23 22:34:00,32.6,24.6,30.24,WSW,255,0.0,0.0,72,0.00,,,0.00,Wunderground v.1.15,2013-01-24 03:34:00,
2013-01-23 22:39:00,32.6,24.6,30.23,WSW,255,0.0,0.0,72,0.00,,,0.00,Wunderground v.1.15,2013-01-24 03:39:00,
2013-01-23 22:44:00,32.5,24.8,30.23,WSW,255,0.0,0.0,73,0.00,,,0.00,Wunderground v.1.15,2013-01-24 03:44:00,
2013-01-23 22:49:00,32.5,25.1,30.23,WSW,255,0.0,1.0,74,0.00,,,0.00,Wunderground v.1.15,2013-01-24 03:49:00,
2013-01-23 22:54:00,32.6,25.2,30.23,WSW,255,0.0,2.0,74,0.00,,,0.00,Wunderground v.1.15,2013-01-24 03:54:00,
2013-01-23 22:59:00,32.8,25.4,30.23,WSW,255,0.0,2.0,74,0.00,,,0.00,Wunderground v.1.15,2013-01-24 03:59:00,
2013-01-23 23:04:00,32.9,25.5,30.23,WSW,255,0.0,0.0,74,0.00,,,0.00,Wunderground v.1.15,2013-01-24 04:04:00,
2013-01-23 23:09:00,33.1,25.7,30.23,WSW,255,0.0,3.0,74,0.00,,,0.00,Wunderground v.1.15,2013-01-24 04:09:00,
2013-01-23 23:14:00,33.2,25.5,30.23,WSW,255,0.0,0.0,73,0.00,,,0.00,Wunderground v.1.15,2013-01-24 04:14:00,
2013-01-23 23:19:00,33.3,25.9,30.23,WSW,255,0.0,0.0,74,0.00,,,0.00,Wunderground v.1.15,2013-01-24 04:19:00,
2013-01-23 23:24:00,33.2,25.5,30.22,WSW,255,0.0,1.0,73,0.00,,,0.00,Wunderground v.1.15,2013-01-24 04:24:00,
2013-01-23 23:29:00,33.4,25.7,30.22,WSW,255,0.0,1.0,73,0.00,,,0.00,Wunderground v.1.15,2013-01-24 04:29:00,
2013-01-23 23:34:00,33.6,25.9,30.22,WSW,255,0.0,0.0,73,0.00,,,0.00,Wunderground v.1.15,2013-01-24 04:34:00,
2013-01-23 23:39:00,33.7,26.0,30.22,WSW,255,0.0,0.0,73,0.00,,,0.00,Wunderground v.1.15,2013-01-24 04:39:00,
2013-01-23 23:44:00,33.8,26.4,30.22,WSW,255,0.0,0.0,74,0.00,,,0.00,Wunderground v.1.15,2013-01-24 04:44:00,
2013-01-23 23:49:00,34.0,26.6,30.22,WSW,256,0.0,4.0,74,0.00,,,0.00,Wunderground v.1.15,2013-01-24 04:49:00,
2013-01-23 23:54:00,34.4,26.6,30.22,West,259,1.0,3.0,73,0.00,,,0.00,Wunderground v.1.15,2013-01-24 04:54:00,
2013-01-23 23:59:00,35.2,27.1,30.22,NW,304,0.0,6.0,72,0.00,,,0.00,Wunderground v.1.15,2013-01-24 04:59:00,